Meteo Giornale » Osservazioni meteo Slovacchia » Dolny Hricov

ore: 16:30 - Osservazioni Meteo Dolny Hricov
Lat. 49° 14' N Lon. 18° 36' E Alt. 312 metri s.l.m.

sereno

25 °C

Sereno

Temp. 24 Ore

13 °C

25 °C

Nord-Ovest

18.5 Km/h

Dew point 8 °C

Umidità 33 %

Visibilità  10 Km

Il sole sorge alle ore 06:01

Il sole tramonta alle ore 19:29

Data e Ora Cielo e Fenomeni T °C DP °C Um. % Pres. hPa Vis. km Vento km/h
Oggi h: 16:30 sereno Sereno 25 8 33 1019 10 NO 18.5
Oggi h: 16:00 sereno Sereno 23 9 40 1019 10 O 14.8
Oggi h: 15:30 poco_nuvoloso Poco Nuvoloso 24 10 41 1019 10 O 13
Oggi h: 15:00 poco_nuvoloso Poco Nuvoloso 24 9 38 1019 10 O 14.8
Oggi h: 14:30 poco_nuvoloso Poco Nuvoloso 24 10 41 1019 10 O 16.7
Oggi h: 14:00 poco_nuvoloso Poco Nuvoloso 24 10 41 1020 10 O/SO 18.5
Oggi h: 13:30 poco_nuvoloso Poco Nuvoloso 24 9 38 1020 10 O 20.3
Oggi h: 13:00 nuvoloso Nuvoloso 22 10 46 1020 10 NO 7.4
Oggi h: 12:30 nuvoloso Nuvoloso 23 10 43 1020 10 O/NO 11.1
Oggi h: 12:00 poco_nuvoloso Poco Nuvoloso 23 10 43 1020 10 O 13
Oggi h: 11:30 poco_nuvoloso Poco Nuvoloso 23 11 46 1020 10 O/SO 18.5
Oggi h: 11:00 poco_nuvoloso Poco Nuvoloso 22 11 49 1020 10 O 18.5
Oggi h: 10:30 poco_nuvoloso Poco Nuvoloso 22 11 49 1019 10 O/SO 20.3
Oggi h: 10:00 poco_nuvoloso Poco Nuvoloso 22 11 49 1019 10 O 18.5
Oggi h: 09:30 poco_nuvoloso Poco Nuvoloso 21 13 60 1019 10 SO 11.1
Oggi h: 09:00 poco_nuvoloso Poco Nuvoloso 19 14 72 1019 10 N 3.7
Oggi h: 08:30 poco_nuvoloso Poco Nuvoloso 16 15 93 1019 10 N 0
Oggi h: 08:00 nebbia Banco di nebbia 15 15 100 1019 0.9 N 3.7
Oggi h: 07:30 nebbia Nebbia 14 14 100 1019 0.9 N 1.8
Oggi h: 07:00 nebbia Nebbia 15 15 100 1018 0.3 N 0
Oggi h: 06:30 nebbia Nebbia 14 14 100 1018 0.7 N 0
Oggi h: 06:00 nebbia Nebbia 13 13 100 1018 0.4 N 1.8
Oggi h: 05:30 nebbia Nebbia 14 13 93 1018 0.4 N 1.8
Oggi h: 05:00 nebbia Nebbia 15 15 100 1018 10 N 1.8
Oggi h: 04:30 sereno Sereno 15 15 100 1018 10 N 3.7
Oggi h: 04:00 sereno Sereno 16 16 100 1017 10 N 0
Oggi h: 03:30 sereno Sereno 16 16 100 1017 10 N 0
Oggi h: 03:00 sereno Sereno 16 16 100 1017 10 N 0
Oggi h: 02:30 sereno Sereno 17 16 93 1018 10 N 1.8
Oggi h: 02:00 sereno Sereno 17 16 93 1018 10 N 5.5
Oggi h: 01:30 sereno Sereno 17 16 93 1018 10 N 5.5
Oggi h: 01:00 sereno Sereno 17 15 88 1018 10 N 3.7
Oggi h: 00:30 sereno Sereno 17 15 88 1018 10 O/SO 7.4
Oggi h: 00:00 sereno Sereno 18 15 82 1017 10 N 3.7
Ieri h: 23:30 molto_nuvoloso Molto Nuvoloso 18 15 82 1017 10 N 3.7
Ieri h: 23:00 molto_nuvoloso Molto Nuvoloso 18 15 82 1017 10 N 1.8
Ieri h: 22:30 sereno Sereno 18 14 77 1016 10 N 1.8
Ieri h: 22:00 sereno Sereno 17 15 88 1016 10 N 3.7
Ieri h: 21:30 sereno Sereno 19 14 72 1016 10 N 3.7
Ieri h: 21:00 sereno Sereno 19 14 72 1016 10 N 3.7
Ieri h: 20:30 sereno Sereno 21 14 64 1015 10 N 5.5
Ieri h: 20:00 sereno Sereno 22 14 60 1015 10 N 1.8
Ieri h: 19:30 poco_nuvoloso Poco Nuvoloso 23 14 56 1015 10 N 1.8
Ieri h: 19:00 poco_nuvoloso Poco Nuvoloso 25 14 50 1015 10 N 5.5
Ieri h: 18:30 poco_nuvoloso Poco Nuvoloso 24 14 53 1015 10 O/SO 11.1
Ieri h: 18:00 coperto_pioggia Pioggia 23 14 56 1015 10 O/SO 13